Flag for Albania Weather past 2 weeks in Durrës, Albania

Now
45 °F

Clear.


Feels Like: 45 °F
Forecast: 51 / 60 °F
Wind: 2 mph from Southeast

Location: Tirana Airport

Current Time: Mar 4, 2015 at 12:16:48 AM

Latest Report: Mar 3, 2015 at 11:20 PM


Visibility: 10 mi

Pressure: 30.24 "Hg

Humidity: 87%

Dew point: 41 °F

Location of DurrësLocation

Historic Weather in Durrës — Graph

°F

Durrës temperature yesterday

Maximum temperature yesterday: 64 °F (at 11:50 AM)
Minimum temperature yesterday: 45 °F (at 11:20 PM)
Average temperature yesterday: 56 °F

Past Weeks' High & Low Weather Summary

 TemperatureHumidityPressure
High64 °F (Feb 24, 12:20 PM)94% (Feb 23, 7:50 AM)30.48 "Hg (Feb 23, 7:50 AM)
Low25 °F (Feb 18, 6:50 AM)10% (Feb 19, 11:20 AM)29.53 "Hg (Feb 25, 3:20 AM)
Average49 °F68%29.99 "Hg
* Reported Feb 16 11:20 PM — Mar 3 11:20 PM, Durrës, Weather by CustomWeather, © 2015

Note: Actual official high and low records may vary slightly from our data, if they occured in-between our weather recording intervals... More about our weather records

Advertising

Durrës weather history for previous 24 hours

 ConditionsComfort  
Time TempWeatherWind HumidityBarometerVisibility
11:20 PM
Tue, Mar 3
45 °FClear.2 mph87%30.24 "Hg10 mi
10:50 PM46 °FClear.2 mph87%30.24 "Hg10 mi
10:20 PM48 °FClear.2 mph82%30.24 "Hg10 mi
9:50 PM46 °FClear.2 mph82%30.24 "Hg10 mi
9:20 PM46 °FClear.6 mph76%30.21 "Hg10 mi
8:50 PM48 °FClear.6 mph76%30.21 "Hg10 mi
8:20 PM48 °FClear.No wind76%30.21 "Hg10 mi
7:50 PM48 °FClear.3 mph76%30.18 "Hg10 mi
7:20 PM50 °FClear.5 mph67%30.18 "Hg10 mi
6:50 PM52 °FClear.3 mph67%30.18 "Hg10 mi
6:20 PM54 °FPassing clouds.5 mph58%30.15 "HgN/A
5:50 PM57 °FClear.7 mph51%30.15 "Hg10 mi
5:20 PM59 °FSunny.9 mph42%30.12 "Hg10 mi
4:50 PM61 °FSunny.10 mph39%30.12 "Hg10 mi
4:20 PM63 °FSunny.10 mph39%30.12 "Hg10 mi
3:50 PM64 °FSunny.12 mph37%30.09 "Hg10 mi
3:20 PM64 °FPassing clouds.13 mph40%30.09 "HgN/A
2:50 PM64 °FPassing clouds.13 mph40%30.09 "HgN/A
2:20 PM64 °FPassing clouds.14 mph46%30.09 "HgN/A
1:50 PM64 °FPassing clouds.12 mph46%30.09 "HgN/A
1:20 PM64 °FPassing clouds.12 mph49%30.09 "HgN/A
12:50 PM64 °FPassing clouds.10 mph49%30.09 "HgN/A
12:20 PM64 °FPassing clouds.10 mph56%30.09 "HgN/A
11:50 AM64 °FScattered clouds.7 mph60%30.09 "HgN/A
11:20 AM63 °FScattered clouds.5 mph64%30.09 "HgN/A
10:50 AM63 °FPassing clouds.7 mph68%30.09 "HgN/A
10:20 AM61 °FScattered clouds.6 mph77%30.07 "HgN/A
9:50 AM61 °FBroken clouds.2 mph68%30.07 "HgN/A
9:20 AM61 °FBroken clouds.3 mph72%30.07 "HgN/A
8:50 AM61 °FScattered clouds.7 mph68%30.07 "HgN/A
8:20 AM59 °FScattered clouds.6 mph72%30.04 "HgN/A
7:50 AM57 °FScattered clouds.7 mph77%30.04 "HgN/A
7:20 AM55 °FScattered clouds.7 mph77%30.01 "HgN/A
6:50 AM55 °FMostly cloudy.6 mph77%30.01 "HgN/A
6:20 AM55 °FCloudy.7 mph77%30.01 "HgN/A
5:50 AM55 °FOvercast.5 mph77%29.98 "HgN/A
5:20 AM55 °FOvercast.7 mph72%30.01 "HgN/A
4:50 AM54 °FMostly cloudy.6 mph77%29.98 "HgN/A
4:20 AM54 °FMostly cloudy.7 mph77%29.98 "HgN/A
3:50 AM54 °FMostly cloudy.7 mph72%29.95 "HgN/A
3:20 AM52 °FMostly cloudy.7 mph77%29.95 "HgN/A
2:50 AM52 °FPassing clouds.5 mph82%29.98 "HgN/A
2:20 AM52 °FPassing clouds.6 mph82%29.98 "HgN/A
1:50 AM52 °FPassing clouds.10 mph82%29.98 "HgN/A
1:20 AM52 °FMostly cloudy.8 mph82%29.98 "HgN/A
12:50 AM52 °FLight rain. Mostly cloudy.8 mph88%29.98 "HgN/A
12:20 AM50 °FLight rain. Mostly cloudy.9 mph88%29.98 "HgN/A
Weather by CustomWeather, © 2015

See weather overviewHow to use our weather pages